TimeCDT,TemperatureF,Dew PointF,Humidity,Sea Level PressureIn,VisibilityMPH,Wind Direction,Wind SpeedMPH,Gust SpeedMPH,PrecipitationIn,Events,Conditions,WindDirDegrees,DateUTC
12:51 AM,75.2,69.8,83,30.07,10.0,South,10.4,-,N/A,,Clear,180,2012-10-05 05:51:00
1:51 AM,73.9,69.1,85,30.06,10.0,South,9.2,-,N/A,,Clear,180,2012-10-05 06:51:00
2:28 AM,73.4,69.8,88,30.08,10.0,South,9.2,-,N/A,,Mostly Cloudy,180,2012-10-05 07:28:00
2:51 AM,73.9,70.0,87,30.06,10.0,South,8.1,-,N/A,,Overcast,180,2012-10-05 07:51:00
3:51 AM,73.9,70.0,87,30.06,10.0,South,8.1,-,N/A,,Overcast,180,2012-10-05 08:51:00
4:51 AM,73.9,70.0,87,30.05,7.0,South,10.4,-,N/A,,Overcast,170,2012-10-05 09:51:00
5:51 AM,73.9,70.0,87,30.05,9.0,SE,9.2,-,N/A,,Overcast,140,2012-10-05 10:51:00
6:51 AM,73.0,70.0,90,30.06,7.0,SSE,10.4,-,N/A,,Scattered Clouds,150,2012-10-05 11:51:00
7:51 AM,73.0,70.0,90,30.06,5.0,SSE,8.1,-,N/A,,Partly Cloudy,150,2012-10-05 12:51:00
8:51 AM,73.9,70.0,87,30.08,7.0,South,12.7,-,N/A,,Mostly Cloudy,170,2012-10-05 13:51:00
9:06 AM,73.4,69.8,88,30.10,8.0,South,11.5,-,N/A,,Mostly Cloudy,170,2012-10-05 14:06:00
9:51 AM,77.0,70.0,79,30.08,10.0,South,13.8,-,N/A,,Mostly Cloudy,180,2012-10-05 14:51:00
10:51 AM,81.0,66.9,62,30.07,10.0,South,15.0,-,N/A,,Mostly Cloudy,180,2012-10-05 15:51:00
11:18 AM,82.4,66.2,58,30.09,10.0,South,17.3,21.9,N/A,,Mostly Cloudy,190,2012-10-05 16:18:00
11:51 AM,82.9,66.9,58,30.06,10.0,South,16.1,-,N/A,,Mostly Cloudy,170,2012-10-05 16:51:00
12:51 PM,84.9,66.9,55,30.04,10.0,South,13.8,-,N/A,,Scattered Clouds,180,2012-10-05 17:51:00
1:51 PM,86.0,66.2,51,30.03,10.0,South,13.8,-,N/A,,Partly Cloudy,170,2012-10-05 18:51:00
2:51 PM,87.1,66.0,49,29.98,10.0,South,16.1,19.6,N/A,,Partly Cloudy,180,2012-10-05 19:51:00
3:51 PM,88.0,66.0,48,29.96,10.0,South,13.8,-,N/A,,Partly Cloudy,180,2012-10-05 20:51:00
4:51 PM,88.0,64.9,46,29.94,10.0,SSW,8.1,-,N/A,,Partly Cloudy,210,2012-10-05 21:51:00
5:51 PM,86.0,64.0,48,29.94,10.0,SSW,8.1,-,N/A,,Clear,200,2012-10-05 22:51:00
6:51 PM,80.1,66.0,62,29.94,10.0,SSW,5.8,-,N/A,,Clear,200,2012-10-05 23:51:00
7:51 PM,79.0,66.0,64,29.94,10.0,South,5.8,-,N/A,,Clear,170,2012-10-06 00:51:00
8:51 PM,78.1,64.9,64,29.96,10.0,SSE,4.6,-,N/A,,Clear,160,2012-10-06 01:51:00
9:37 PM,75.2,62.6,65,30.00,10.0,North,12.7,25.3,N/A,,Mostly Cloudy,350,2012-10-06 02:37:00
9:51 PM,75.9,63.0,64,29.99,10.0,North,13.8,21.9,N/A,,Mostly Cloudy,360,2012-10-06 02:51:00
10:51 PM,73.4,60.8,65,30.03,10.0,NNE,15.0,26.5,N/A,,Overcast,20,2012-10-06 03:51:00
11:51 PM,64.9,54.0,68,30.04,10.0,NNE,18.4,27.6,N/A,,Mostly Cloudy,20,2012-10-06 04:51:00